Location: Bou Ouachlou
(32.7770°N, 5.6009°W)
Time: 17:42:13
(UTC+00:00)

Cosmos 1605 Rocket - Pass Details

Date: 07 June 2020
Orbit: 945 x 1005 km, 82.9° (Epoch: 01 July)

Event Time Altitude Azimuth Distance (km) Brightness Sun altitude
Rises 04:43:06 0° 178° (S) 3,675 6.7 -6.5°
Reaches altitude 10° 04:45:36 10° 176° (S) 2,738 6.1 -6.0°
Maximum altitude 04:51:52 72° 93° (E) 1,044 4.4 -4.9°
Drops below altitude 10° 04:58:14 10° 10° (N) 2,781 7.0 -3.7°
Sets 05:00:47 0° 9° (N) 3,737 7.7 -3.3°
